Location: Unspecified
(0.0000°N, 0.0000°E)
Time: 20:34:27
(UTC+02:00)

Cosmos 1933 - Visible Passes

Search period start: 17 April 2014 00:00
Search period end: 27 April 2014 00:00
Orbit: 558 x 573 km, 82.5° (Epoch: 16 April)

Date Brightness Start Highest point End Pass type
(mag) Time Alt. Az. Time Alt. Az. Time Alt. Az.
17 Apr 3.2 21:19:09 10° S 21:23:15 76° E 21:27:21 10° N visible
18 Apr 3.4 21:19:45 10° S 21:23:51 80° W 21:27:58 10° N visible
19 Apr 4.0 21:20:25 10° SSW 21:24:27 58° W 21:28:30 10° N visible
20 Apr 4.6 21:21:10 10° SSW 21:25:03 42° W 21:28:57 10° NNW visible
21 Apr 5.3 21:21:59 10° SSW 21:25:39 31° W 21:29:18 10° NNW visible
22 Apr 5.8 21:22:56 10° SW 21:26:14 24° W 21:29:33 10° NNW visible
23 Apr 6.3 21:24:01 10° SW 21:26:49 18° W 21:29:38 10° NW visible
24 Apr 6.7 21:25:21 10° WSW 21:27:24 14° W 21:29:27 10° NW visible
